Weather History for Mombasa, Kenya

Change the Weather History Date:

Sunday, February 17, 2013

  Actual Average Record
Temperature  
Mean Temperature 83 °F -  
Max Temperature 91 °F 93 °F 91 °F (1998)
Min Temperature 75 °F 73 °F 62 °F (2007)
Cooling Degree Days 18    
Growing Degree Days 33 (Base 50)    
Moisture  
Dew Point 73 °F    
Average Humidity 73    
Maximum Humidity 94    
Minimum Humidity 52    
Precipitation  
Precipitation 0.00 in 0.05 in - ()
Sea Level Pressure  
Sea Level Pressure 29.79 in    
Wind  
Wind Speed 5 mph ()    
Max Wind Speed 17 mph    
Max Gust Speed -    
Visibility 7.7 miles    
Events      
Averages and records for this station are not official NWS values.
T = Trace of Precipitation, MM = Missing Value Source: Averaged Metar Reports

Daily Weather History Graph

Daily Weather History Graph

Search for Another Location

Airport:

Trip Planner

Search our weather history database for the weather conditions in past years. The results will help you decide how hot, cold, wet, or windy it might be!

Date:

Astronomy

Feb. 17, 2013 Rise Set
Actual Time 6:28 AM EAT 6:42 PM EAT
Civil Twilight 6:07 AM EAT 7:03 PM EAT
Nautical Twilight 5:42 AM EAT 7:28 PM EAT
Astronomical Twilight 5:18 AM EAT 7:52 PM EAT
Moon 12:02 PM EAT (2/17) No Moon Set
Length of Visible Light 12h 55m
Length of Day
12h 13m
Waxing Crescent, 45% of the Moon is Illuminated
Feb 17
Waxing Crescent
Feb 17
First Quarter
Feb 25
Full
Mar 5
Last Quarter
Mar 11
New

Hourly Weather History & Observations

Time (EAT) Temp. Heat Index Dew Point Humidity Pressure Visibility Wind Dir Wind Speed Gust Speed Precip Events Conditions
12:00 AM 80.6 °F 86.2 °F 75.2 °F 84% 29.80 in 6.2 mi Calm Calm - N/A   Partly Cloudy
1:00 AM 78.8 °F - 75.2 °F 89% 29.80 in 6.2 mi Calm Calm - N/A   Partly Cloudy
2:00 AM 78.8 °F - 75.2 °F 89% 29.80 in 6.2 mi NNW 5.8 mph - N/A   Partly Cloudy
3:00 AM 79 °F - 74 °F 80% 29.78 in 19 mi Calm Calm - -   Mostly Cloudy
3:00 AM 78.8 °F - 73.4 °F 83% 29.77 in 6.2 mi North 5.8 mph - N/A   Mostly Cloudy
4:00 AM 78.8 °F - 73.4 °F 83% 29.77 in 6.2 mi NNE 3.5 mph - N/A   Partly Cloudy
5:00 AM 78.8 °F - 73.4 °F 83% 29.80 in 6.2 mi Calm Calm - N/A   Partly Cloudy
6:00 AM 77.0 °F - 75.2 °F 94% 29.80 in 6.2 mi North 3.5 mph - N/A   Partly Cloudy
7:00 AM 77.0 °F - 73.4 °F 89% 29.83 in 6.2 mi Calm Calm - N/A   Partly Cloudy
8:00 AM 78.8 °F - 73.4 °F 83% 29.86 in 6.2 mi North 4.6 mph - N/A   Mostly Cloudy
9:00 AM 83 °F - 71 °F 58% 29.86 in 19 mi NNE 9.2 mph - -   Scattered Clouds
9:00 AM 84.2 °F 89.6 °F 71.6 °F 66% 29.86 in 6.2 mi NNE 9.2 mph - N/A   Scattered Clouds
10:00 AM 87.8 °F 92.6 °F 69.8 °F 55% 29.86 in 6.2 mi NNE 9.2 mph - N/A   Scattered Clouds
11:00 AM 89.6 °F 94.7 °F 69.8 °F 52% 29.83 in 6.2 mi North 11.5 mph - N/A   Mostly Cloudy
12:00 PM 87.8 °F 92.6 °F 69.8 °F 55% 29.83 in 6.2 mi NE 12.7 mph - N/A   Mostly Cloudy
1:00 PM 89.6 °F 96.2 °F 71.6 °F 55% 29.77 in 6.2 mi ENE 11.5 mph - N/A   Scattered Clouds
2:00 PM 89.6 °F 96.2 °F 71.6 °F 55% 29.74 in 6.2 mi ENE 13.8 mph - N/A   Partly Cloudy
3:00 PM 89.6 °F 96.2 °F 71.6 °F 55% 29.71 in 6.2 mi East 15.0 mph - N/A   Partly Cloudy
4:00 PM 87.8 °F 93.8 °F 71.6 °F 58% 29.71 in 6.2 mi East 13.8 mph - N/A   Scattered Clouds
5:00 PM 86.0 °F 91.8 °F 71.6 °F 62% 29.71 in 6.2 mi East 15.0 mph - N/A   Scattered Clouds
6:00 PM 84.2 °F 90.9 °F 73.4 °F 70% 29.71 in 6.2 mi ENE 17.3 mph - N/A   Mostly Cloudy
7:00 PM 80.6 °F 85.4 °F 73.4 °F 79% 29.74 in 6.2 mi ENE 8.1 mph - N/A   Scattered Clouds
8:00 PM 80.6 °F 84.6 °F 71.6 °F 74% 29.74 in 6.2 mi NE 12.7 mph - N/A   Partly Cloudy
9:00 PM 80 °F - 73 °F 73% 29.77 in 19 mi NE 6.9 mph - -   Scattered Clouds
10:00 PM 78.8 °F - 73.4 °F 83% 29.77 in 6.2 mi ENE 5.8 mph - N/A   Partly Cloudy
11:00 PM 78.8 °F - 73.4 °F 83% 29.80 in 6.2 mi ENE 4.6 mph - N/A   Partly Cloudy